2017-080B

Last updated on Dec. 17, 2017, 12:15 a.m. UTC

1 43061U 17080B   17350.83408315  .01951108  11535-4  16675-2 0  9999
2 43061  51.6335 207.6472 0098751  49.9139 311.0512 16.02846938   192

Satellite is not in orbit.